Location: Unspecified
(0.0000°N, 0.0000°E)
Time: 01:21:32
(UTC+00:00)

Transit 2A - Pass Details

Date: 23 November 2019
Orbit: 602 x 957 km, 66.7° (Epoch: 11 December)

Event Time Altitude Azimuth Distance (km) Brightness Sun altitude
Rises 21:56:09 0° 324° (NW) 2,991 - -56.2°
Reaches altitude 10° 21:58:30 10° 315° (NW) 2,129 - -56.6°
Maximum altitude 22:02:55 36° 249° (WSW) 1,149 - -57.5°
Drops below altitude 10° 22:07:48 10° 183° (S) 2,348 - -58.4°
Sets 22:10:32 0° 174° (S) 3,344 - -58.9°
